Qaanaaq Airport,

1:55 AM AST on December 18, 2017 (GMT -0400)
Qaanaaq Airport

Weather History for BGQQ - September, 2013

Change the Weather History Date:

Friday, September 27, 2013

  Actual Average Record
Temperature  
Mean Temperature 26 °F -  
Max Temperature 32 °F - - ()
Min Temperature 21 °F - - ()
Degree Days  
Heating Degree Days 38    
Moisture  
Dew Point 12 °F    
Average Humidity 59    
Maximum Humidity 68    
Minimum Humidity 44    
Precipitation  
Precipitation 0.00 in - - ()
Sea Level Pressure  
Sea Level Pressure 30.16 in    
Wind  
Wind Speed 2 mph ()    
Max Wind Speed 5 mph    
Max Gust Speed -    
Visibility 6.2 miles    
Events      
T = Trace of Precipitation, MM = Missing Value Source: Averaged Metar Reports

Daily Weather History Graph

Daily Weather History Graph

Search for Another Location

Airport or City:

Trip Planner

Search our weather history database for the weather conditions in past years. The results will help you decide how hot, cold, wet, or windy it might be!

Date:

Astronomy

Sep. 27, 2013 Rise Set
Actual Time 7:44 AM ADT 7:07 PM ADT
Civil Twilight 6:07 AM ADT 8:43 PM ADT
Nautical Twilight 3:46 AM ADT 10:59 PM ADT
Astronomical Twilight Sun does not rise Sun does not rise
Moon No Moon Rise No Moon Set
Length of Visible Light 14h 36m
Length of Day
11h 22m
Last Quarter, 46% of the Moon is Illuminated
Sep 27
Last Quarter
Oct 4
New
Oct 11
First Quarter
Oct 18
Full
Oct 26
Last Quarter

Hourly Weather History & Observations

Time (ADT) Temp. Windchill Dew Point Humidity Pressure Visibility Wind Dir Wind Speed Gust Speed Precip Events Conditions
12:20 AM 23.0 °F - 12.2 °F 63% 30.21 in 6.2 mi ENE 2.3 mph - N/A   Unknown
12:50 AM 21.2 °F - 12.2 °F 68% 30.21 in 6.2 mi ENE 2.3 mph - N/A   Unknown
1:20 AM 23.0 °F - 12.2 °F 63% 30.21 in 6.2 mi ENE 2.3 mph - N/A   Unknown
1:50 AM 21.2 °F 16.4 °F 12.2 °F 68% 30.21 in 6.2 mi ENE 3.5 mph - N/A   Unknown
2:20 AM 21.2 °F 16.4 °F 12.2 °F 68% 30.21 in 6.2 mi NE 3.5 mph - N/A   Unknown
2:50 AM 21.2 °F - 12.2 °F 68% 30.21 in 6.2 mi NE 2.3 mph - N/A   Unknown
3:20 AM 23.0 °F - 12.2 °F 63% 30.21 in 6.2 mi NE 2.3 mph - N/A   Unknown
3:50 AM 21.2 °F - 12.2 °F 68% 30.18 in 6.2 mi NE 2.3 mph - N/A   Unknown
4:20 AM 21.2 °F - 12.2 °F 68% 30.18 in 6.2 mi NE 2.3 mph - N/A   Unknown
4:50 AM 23.0 °F 18.4 °F 12.2 °F 63% 30.18 in 6.2 mi NNE 3.5 mph - N/A   Unknown
5:20 AM 23.0 °F 17.0 °F 10.4 °F 59% 30.18 in 6.2 mi NNE 4.6 mph - N/A   Unknown
5:50 AM 23.0 °F - 12.2 °F 63% 30.18 in 6.2 mi NNE 2.3 mph - N/A   Unknown
6:20 AM 23.0 °F - 12.2 °F 63% 30.18 in 6.2 mi NNE 2.3 mph - N/A   Unknown
6:50 AM 23.0 °F - 12.2 °F 63% 30.18 in 6.2 mi NNE 2.3 mph - N/A   Unknown
7:20 AM 23.0 °F 18.4 °F 12.2 °F 63% 30.18 in 6.2 mi NNE 3.5 mph - N/A   Mostly Cloudy
7:50 AM 23.0 °F 18.4 °F 12.2 °F 63% 30.18 in 6.2 mi NNE 3.5 mph - N/A   Mostly Cloudy
8:50 AM 23.0 °F 18.4 °F 14.0 °F 68% 30.18 in 6.2 mi NNE 3.5 mph - N/A   Mostly Cloudy
9:50 AM 24.8 °F - 12.2 °F 59% 30.18 in 6.2 mi NNE 2.3 mph - N/A   Scattered Clouds
10:50 AM 28.4 °F - 14.0 °F 55% 30.18 in 6.2 mi NNE 1.2 mph - N/A   Partly Cloudy
11:50 AM 28.4 °F - 12.2 °F 51% 30.15 in 6.2 mi NNE 1.2 mph - N/A   Scattered Clouds
12:50 PM 28.4 °F - 14.0 °F 55% 30.15 in 6.2 mi NNE 2.3 mph - N/A   Mostly Cloudy
1:50 PM 28.4 °F - 14.0 °F 55% 30.15 in 6.2 mi Calm Calm - N/A   Mostly Cloudy
2:50 PM 32.0 °F - 12.2 °F 44% 30.15 in 6.2 mi NNE 2.3 mph - N/A   Unknown
3:20 PM 30.2 °F - 14.0 °F 51% 30.15 in 6.2 mi NNE 1.2 mph - N/A   Unknown
3:50 PM 28.4 °F - 14.0 °F 55% 30.15 in 6.2 mi NNE 1.2 mph - N/A   Unknown
4:20 PM 28.4 °F - 12.2 °F 51% 30.15 in 6.2 mi NNE 2.3 mph - N/A   Unknown
4:50 PM 28.4 °F - 12.2 °F 51% 30.15 in 6.2 mi NNE 2.3 mph - N/A   Unknown
5:20 PM 26.6 °F - 14.0 °F 59% 30.15 in 6.2 mi NNE 2.3 mph - N/A   Unknown
5:50 PM 26.6 °F - 12.2 °F 55% 30.15 in 6.2 mi NNE 1.2 mph - N/A   Unknown
6:20 PM 26.6 °F - 12.2 °F 55% 30.15 in 6.2 mi NNE 1.2 mph - N/A   Unknown
6:50 PM 24.8 °F - 14.0 °F 64% 30.15 in 6.2 mi NNE 2.3 mph - N/A   Unknown
7:20 PM 24.8 °F - 14.0 °F 64% 30.15 in 6.2 mi NNE 1.2 mph - N/A   Unknown
7:50 PM 24.8 °F - 12.2 °F 59% 30.15 in 6.2 mi Variable 1.2 mph - N/A   Unknown
8:20 PM 24.8 °F - 12.2 °F 59% 30.15 in 6.2 mi NNE 2.3 mph - N/A   Unknown
8:50 PM 24.8 °F 20.5 °F 12.2 °F 59% 30.15 in 6.2 mi NNE 3.5 mph - N/A   Unknown
9:20 PM 24.8 °F - 12.2 °F 59% 30.12 in 6.2 mi NNE 1.2 mph - N/A   Unknown
9:50 PM 24.8 °F - 12.2 °F 59% 30.12 in 6.2 mi NNE 1.2 mph - N/A   Unknown
10:20 PM 24.8 °F - 12.2 °F 59% 30.12 in 6.2 mi NNE 2.3 mph - N/A   Unknown
10:50 PM 24.8 °F - 10.4 °F 54% 30.12 in 6.2 mi NNE 2.3 mph - N/A   Unknown
11:20 PM 24.8 °F 20.5 °F 10.4 °F 54% 30.12 in 6.2 mi NNE 3.5 mph - N/A   Unknown
11:50 PM 24.8 °F 20.5 °F 8.6 °F 50% 30.12 in 6.2 mi East 3.5 mph - N/A   Unknown